Location: Bremen
(53.0793°N, 8.8017°E)
Time: 05:19:32
(UTC+02:00)

S-56A Canister/Altair - Visible Passes

Search period start: 22 April 2024 00:00
Search period end: 02 May 2024 00:00
Orbit: 639 x 2488 km, 38.9° (Epoch: 21 April)

Date Brightness Start Highest point End Pass type
(mag) Time Alt. Az. Time Alt. Az. Time Alt. Az.
22 Apr 10.1 21:55:54 10° WSW 22:01:28 22° SSW 22:08:06 11° SSE visible
23 Apr 10.8 00:02:52 10° SW 00:04:45 11° SW 00:05:27 11° SSW visible
23 Apr 10.0 21:22:44 10° WSW 21:27:58 22° SSW 21:34:47 10° SSE visible
23 Apr 10.7 23:28:42 10° SW 23:31:12 11° SSW 23:33:33 10° SSW visible
24 Apr 10.6 22:54:54 10° SW 22:57:40 12° SSW 23:00:45 10° S visible
25 Apr 10.5 22:21:19 10° SW 22:24:11 12° SSW 22:27:24 10° S visible
26 Apr 10.5 21:47:51 10° SW 21:50:43 12° SSW 21:53:57 10° S visible
